[[{"header":{"parameterUnit":"m.s-1","parameterCategory":1,"la1":30.2991,"la2":30.254,"lo1":-89.0895,"lo2":-89.0444,"dy":0.0017,"dx":0.0017,"nx":28,"ny":28,"refTime":"2025-05-26T03:00:00:Z","depth":0,"parameterNumber":2,"parameterNumberName":"U-component_of_WINDS"},"data":[0,0,0,0,0,0,0,0,0,0,0,0,0,0,0,0,0,0,0,0,0,0,0,0,0,0,0,0,0,0,0,0,0,0,0,0,0,0,0,0,0,0,0,0,0,0,0,0,0,0,0,0,0,0,0,0,0,0,-1.2594,-1.2594,0,-1.2598,-1.2598,-1.2598,-1.2605,-1.2605,-1.2605,-1.2605,-1.2609,-1.2609,-1.2609,0,0,0,0,0,0,0,0,0,0,0,0,0,-1.2591,-1.2591,-1.2594,-1.2594,-1.2594,-1.2598,-1.2598,-1.2598,-1.2605,-1.2605,-1.2605,-1.2605,-1.2609,-1.2609,-1.2609,0,0,0,0,0,0,0,0,0,0,0,0,0,-1.2593,-1.2591,-1.2594,-1.2598,-1.2598,-1.2598,-1.2598,-1.2598,-1.2605,-1.2605,-1.2605,-1.2606,-1.2609,-1.2609,-1.2609,-1.2605,0,0,-1.2609,-1.2609,0,0,0,0,0,0,0,0,-1.2593,-1.2593,-1.2597,-1.2597,-1.2598,-1.2601,-1.2598,-1.2601,-1.2605,-1.2602,-1.2605,-1.2606,-1.2606,-1.2606,-1.2607,-1.2605,-1.2605,-1.2609,-1.2609,-1.2609,-1.2609,0,0,0,0,0,0,0,-1.2593,-1.2593,-1.2595,-1.2597,-1.2598,-1.2599,-1.26,-1.2599,-1.2603,-1.2603,-1.2603,-1.2604,-1.2606,-1.2607,-1.2607,-1.2606,-1.2609,-1.2609,-1.2609,-1.2609,-1.2601,-1.2601,0,0,0,0,0,0,-1.2592,-1.2593,-1.2595,-1.2596,-1.2596,-1.2599,-1.26,-1.26,-1.2603,-1.2604,-1.2603,-1.2604,-1.2607,-1.2607,-1.2607,-1.2603,-1.2609,-1.2609,-1.2609,-1.2602,-1.2601,-1.2601,0,0,0,0,0,0,-1.2592,-1.2592,-1.2595,-1.2594,-1.2595,-1.2599,-1.2599,-1.26,-1.26,-1.2604,-1.2605,-1.2603,-1.2607,-1.2607,-1.2606,-1.2603,-1.2609,-1.2609,-1.2602,-1.2602,-1.2601,-1.2595,0,0,0,0,0,0,-1.2592,-1.2592,-1.2591,-1.2594,-1.2595,-1.2594,-1.2599,-1.26,-1.26,-1.2601,-1.2604,-1.2604,-1.2607,-1.2606,-1.2606,-1.2603,-1.2609,-1.2602,-1.2602,-1.2601,-1.2595,-1.2594,-1.2593,0,0,0,0,0,-1.2592,-1.2588,-1.2591,-1.2591,-1.2593,-1.2594,-1.2594,-1.2597,-1.26,-1.2599,-1.2601,-1.2604,-1.2604,-1.2606,-1.2606,-1.2603,-1.2602,-1.2602,-1.2601,-1.2595,-1.2594,-1.2593,0,0,0,0,0,0,-1.2584,-1.2589,-1.2591,-1.2589,-1.2591,-1.2595,-1.2593,-1.2596,-1.2597,-1.2597,-1.2602,-1.2602,-1.26,-1.2602,-1.2604,-1.26,-1.2603,-1.2603,-1.2599,-1.2598,-1.2597,-1.2597,-1.2609,0,0,0,0,0,-1.2582,-1.2582,-1.2586,-1.2584,-1.2585,-1.2589,-1.2589,-1.2592,-1.2594,-1.2594,-1.2596,-1.2598,-1.2598,-1.2598,-1.2598,-1.2595,-1.2596,-1.2594,-1.2593,-1.2592,-1.2592,-1.259,-1.2589,-1.26,-1.26,-1.26,0,0,-1.2578,-1.2581,-1.258,-1.2583,-1.2584,-1.2584,-1.2589,-1.2589,-1.2589,-1.2594,-1.2593,-1.2595,-1.2597,-1.2594,-1.2594,-1.2596,-1.2589,-1.2592,-1.2591,-1.2591,-1.259,-1.2589,-1.2588,-1.26,-1.26,-1.26,0,0,-1.2571,-1.2573,-1.2571,-1.2573,-1.2575,-1.2578,-1.2578,-1.2581,-1.2583,-1.2582,-1.2586,-1.2586,-1.2586,-1.2587,-1.2588,-1.2582,-1.2585,-1.2582,-1.2577,-1.2576,-1.2575,-1.2574,-1.2572,-1.2571,-1.2581,-1.2581,-1.2581,0,-1.2565,-1.2565,-1.257,-1.2569,-1.257,-1.2575,-1.2574,-1.2575,-1.2578,-1.2578,-1.258,-1.2581,-1.2583,-1.2581,-1.258,-1.258,-1.258,-1.2581,-1.2575,-1.2574,-1.2574,-1.2572,-1.2571,-1.2581,-1.2581,-1.2581,-1.2581,0,-1.2558,-1.2558,-1.2557,-1.256,-1.256,-1.2559,-1.2563,-1.2564,-1.2566,-1.2569,-1.2568,-1.257,-1.2571,-1.2571,-1.2574,-1.257,-1.2571,-1.2574,-1.2578,-1.2572,-1.257,-1.257,-1.258,-1.2581,-1.2581,-1.2581,0,0,-1.2546,-1.2551,-1.2551,-1.2552,-1.2556,-1.2556,-1.2555,-1.2557,-1.2557,-1.2558,-1.2558,-1.2558,-1.2561,-1.2562,-1.2565,-1.2564,-1.2559,-1.2567,-1.2567,-1.2565,-1.2555,-1.2552,-1.2551,-1.2561,-1.2561,-1.2561,-1.2555,0,-1.2539,-1.2538,-1.2542,-1.254,-1.254,-1.2546,-1.2545,-1.2547,-1.255,-1.255,-1.2553,-1.2553,-1.2557,-1.2558,-1.2557,-1.2559,-1.2557,-1.256,-1.256,-1.256,-1.2559,-1.255,-1.2548,-1.2542,-1.2554,-1.2554,-1.2554,0,-1.253,-1.2532,-1.253,-1.2534,-1.2535,-1.2534,-1.2536,-1.2536,-1.2539,-1.2541,-1.2542,-1.2546,-1.2545,-1.2549,-1.2548,-1.2551,-1.2551,-1.2552,-1.2552,-1.2552,-1.2556,-1.255,-1.254,-1.2539,-1.2553,-1.2553,-1.2553,0,-1.2521,-1.2523,-1.2522,-1.2523,-1.2528,-1.2528,-1.253,-1.2533,-1.2533,-1.2535,-1.2535,-1.2537,-1.2538,-1.2539,-1.2543,-1.2545,-1.2541,-1.2546,-1.2543,-1.2543,-1.2542,-1.2542,-1.2532,-1.2542,-1.2542,-1.2542,-1.2542,0,-1.2513,-1.2512,-1.2518,-1.2518,-1.2517,-1.2522,-1.252,-1.2523,-1.2525,-1.2525,-1.253,-1.253,-1.2535,-1.2536,-1.2539,-1.2538,-1.2538,-1.2539,-1.254,-1.2539,-1.2539,-1.2539,-1.2539,-1.2542,-1.2542,-1.2542,-1.2542,0,-1.2502,-1.2507,-1.2506,-1.2511,-1.2512,-1.2511,-1.2515,-1.2515,-1.2518,-1.2518,-1.2518,-1.2523,-1.2524,-1.2528,-1.253,-1.2532,-1.253,-1.2531,-1.2529,-1.2529,-1.2526,-1.2527,-1.2516,-1.2515,-1.2526,-1.2526,-1.2526,0,-1.2497,-1.2496,-1.2501,-1.2501,-1.2503,-1.2504,-1.2505,-1.251,-1.2511,-1.2514,-1.2513,-1.2515,-1.2516,-1.2517,-1.252,-1.2522,-1.2523,-1.252,-1.2524,-1.2522,-1.2523,-1.2523,-1.2523,-1.2519,-1.2519,-1.2519,-1.2518,0,-1.2486,-1.2489,-1.249,-1.2492,-1.2493,-1.2495,-1.2497,-1.2497,-1.2503,-1.2504,-1.2505,-1.2506,-1.2508,-1.2509,-1.2511,-1.2513,-1.2517,-1.2517,-1.2517,-1.2515,-1.2514,-1.2514,-1.2526,-1.2517,-1.2517,-1.2518,-1.2518,-1.2518,-1.2478,-1.2478,-1.2481,-1.2482,-1.2485,-1.2487,-1.2487,-1.249,-1.2491,-1.2493,-1.2496,-1.2497,-1.25,-1.2503,-1.2505,-1.2506,-1.2508,-1.2507,-1.2507,-1.2506,-1.2506,-1.2514,-1.2506,-1.2506,-1.2506,-1.2506,-1.2506,0,-1.2468,-1.247,-1.2472,-1.2475,-1.2476,-1.248,-1.2482,-1.2483,-1.2484,-1.2486,-1.2488,-1.2489,-1.249,-1.2494,-1.2496,-1.2496,-1.2497,-1.2496,-1.2496,-1.2496,-1.2504,-1.2504,-1.2495,-1.2495,-1.2495,-1.2495,-1.2495,-1.2495,-1.2462,-1.2462,-1.2465,-1.2466,-1.2468,-1.2469,-1.2471,-1.2472,-1.2475,-1.2476,-1.2477,-1.248,-1.2483,-1.2485,-1.2487,-1.2488,-1.2488,-1.2486,-1.2488,-1.2495,-1.2496,-1.2497,-1.2497,-1.2486,-1.2486,-1.248,-1.248,-1.248]},{"header":{"parameterUnit":"m.s-1","parameterCategory":1,"la1":30.2991,"la2":30.254,"lo1":-89.0895,"lo2":-89.0444,"dy":0.0017,"dx":0.0017,"nx":28,"ny":28,"refTime":"2025-05-26T03:00:00:Z","depth":0,"parameterNumber":3,"parameterNumberName":"V-component_of_WINDS"},"data":[0,0,0,0,0,0,0,0,0,0,0,0,0,0,0,0,0,0,0,0,0,0,0,0,0,0,0,0,0,0,0,0,0,0,0,0,0,0,0,0,0,0,0,0,0,0,0,0,0,0,0,0,0,0,0,0,0,0,5.5539,5.5539,0,5.5549,5.555,5.555,5.5471,5.5469,5.5467,5.5465,5.5473,5.5476,5.5478,0,0,0,0,0,0,0,0,0,0,0,0,0,5.5449,5.5451,5.5539,5.5539,5.5539,5.5549,5.555,5.555,5.5471,5.5469,5.5466,5.5464,5.5473,5.5475,5.5478,0,0,0,0,0,0,0,0,0,0,0,0,0,5.5476,5.5451,5.5539,5.5501,5.5498,5.5549,5.555,5.555,5.5472,5.5469,5.5465,5.5462,5.5472,5.5475,5.5478,5.5565,0,0,5.5489,5.549,0,0,0,0,0,0,0,0,5.5475,5.548,5.5507,5.5504,5.55,5.5506,5.5521,5.5555,5.5473,5.5482,5.5465,5.5461,5.5487,5.5489,5.5498,5.5566,5.5566,5.5489,5.5491,5.5493,5.5494,0,0,0,0,0,0,0,5.5473,5.5479,5.5543,5.5507,5.5503,5.5483,5.5484,5.5527,5.5502,5.5481,5.5475,5.5478,5.5484,5.5495,5.5497,5.5566,5.5489,5.5492,5.5494,5.5495,5.5707,5.571,0,0,0,0,0,0,5.5476,5.5478,5.5542,5.5543,5.5479,5.5488,5.5488,5.5507,5.5502,5.5498,5.548,5.5474,5.549,5.5493,5.5497,5.5599,5.5493,5.5496,5.5498,5.5703,5.5708,5.5712,0,0,0,0,0,0,5.5475,5.5483,5.5542,5.5509,5.5515,5.5493,5.5515,5.5509,5.5519,5.5502,5.5497,5.5496,5.5488,5.5493,5.5549,5.5598,5.5497,5.55,5.5699,5.5705,5.571,5.5804,0,0,0,0,0,0,5.5473,5.5483,5.5516,5.551,5.5517,5.5595,5.5518,5.5512,5.5526,5.5517,5.5515,5.5511,5.5486,5.5545,5.5553,5.5601,5.5503,5.5695,5.5702,5.5708,5.5796,5.5812,5.5825,0,0,0,0,0,5.547,5.5541,5.5518,5.5526,5.5558,5.5598,5.5601,5.5572,5.553,5.5563,5.5552,5.5511,5.5592,5.5551,5.556,5.561,5.5691,5.57,5.5707,5.579,5.5809,5.5824,0,0,0,0,0,0,5.5552,5.554,5.5514,5.5586,5.5594,5.5584,5.5625,5.5592,5.5611,5.5602,5.5564,5.5564,5.5627,5.5624,5.5579,5.5694,5.5634,5.5644,5.5694,5.5712,5.5726,5.5725,5.5506,0,0,0,0,0,5.5579,5.5613,5.56,5.5665,5.567,5.5647,5.5663,5.564,5.5646,5.5648,5.5641,5.5648,5.5674,5.5693,5.5716,5.5795,5.5794,5.5834,5.5849,5.586,5.587,5.5911,5.5929,5.5738,5.5738,5.5738,0,0,5.5634,5.5632,5.5655,5.5682,5.5685,5.572,5.565,5.569,5.5716,5.5654,5.5707,5.5703,5.5707,5.5776,5.5806,5.5775,5.5922,5.5871,5.588,5.5883,5.5922,5.594,5.5956,5.5743,5.5742,5.5741,0,0,5.5753,5.5755,5.581,5.5815,5.5821,5.5805,5.5818,5.5814,5.5809,5.5862,5.5817,5.5846,5.5894,5.5899,5.5908,5.6031,5.5994,5.604,5.6115,5.6156,5.6171,5.6184,5.6228,5.6245,5.6049,5.6049,5.6049,0,5.5821,5.5873,5.5842,5.5885,5.5898,5.5845,5.59,5.5906,5.5919,5.5929,5.5895,5.5954,5.5953,5.6022,5.6053,5.6062,5.6075,5.604,5.6172,5.6185,5.6196,5.6238,5.6255,5.6055,5.6054,5.6053,5.6053,0,5.5957,5.5994,5.6037,5.6053,5.607,5.6119,5.6095,5.6116,5.6092,5.608,5.6135,5.6133,5.6155,5.617,5.6146,5.6237,5.6217,5.6178,5.6117,5.6221,5.6259,5.6275,5.6062,5.6061,5.6059,5.6058,0,0,5.6127,5.6125,5.6142,5.6149,5.6152,5.618,5.6226,5.625,5.6269,5.628,5.6318,5.636,5.6324,5.6335,5.6311,5.6347,5.6445,5.6303,5.6303,5.633,5.6545,5.6574,5.6593,5.6421,5.6424,5.6426,5.6544,0,5.6243,5.6324,5.6297,5.6379,5.6413,5.6363,5.6404,5.641,5.6401,5.6428,5.6416,5.6447,5.6397,5.6403,5.6437,5.6426,5.6488,5.6417,5.6456,5.6458,5.6456,5.6613,5.6644,5.6756,5.6559,5.6562,5.6564,0,5.639,5.6408,5.6494,5.6493,5.6506,5.6543,5.6562,5.6589,5.6595,5.6585,5.6598,5.6567,5.6612,5.6552,5.6614,5.6566,5.6581,5.6578,5.6581,5.6584,5.6517,5.662,5.6791,5.6808,5.6587,5.6585,5.6583,0,5.6506,5.6552,5.661,5.6617,5.6616,5.6644,5.6645,5.6648,5.6664,5.6681,5.6691,5.6712,5.6724,5.6742,5.6717,5.6675,5.6783,5.672,5.6776,5.6777,5.68,5.6799,5.6976,5.681,5.681,5.6809,5.6809,0,5.6639,5.6693,5.6662,5.6697,5.6757,5.6725,5.6785,5.678,5.6783,5.6816,5.6774,5.6806,5.6772,5.68,5.6781,5.6836,5.6841,5.6835,5.6829,5.6838,5.6839,5.6847,5.6839,5.6814,5.6813,5.6812,5.6811,0,5.6779,5.676,5.6819,5.6815,5.6815,5.6859,5.6854,5.6886,5.6874,5.6917,5.6925,5.6906,5.6937,5.6914,5.6945,5.6932,5.7004,5.6988,5.7003,5.6998,5.7055,5.705,5.7244,5.7267,5.7086,5.7088,5.7089,0,5.6865,5.6906,5.6906,5.6926,5.693,5.6962,5.6978,5.6949,5.6968,5.6979,5.701,5.7038,5.7059,5.7112,5.71,5.7123,5.7107,5.7173,5.711,5.7119,5.7108,5.7106,5.711,5.7186,5.7188,5.719,5.7191,0,5.702,5.7009,5.7035,5.7058,5.7079,5.7096,5.7109,5.7127,5.7098,5.7121,5.7153,5.717,5.7202,5.7231,5.725,5.725,5.7216,5.7211,5.7225,5.7236,5.7243,5.724,5.7038,5.7207,5.7205,5.7204,5.7203,5.7203,5.7135,5.717,5.7176,5.7206,5.7213,5.7227,5.7257,5.7249,5.7276,5.7301,5.7282,5.732,5.7326,5.7349,5.7353,5.7383,5.7355,5.7376,5.7381,5.7387,5.7395,5.7238,5.7386,5.7385,5.7385,5.7385,5.7384,0,5.7288,5.729,5.7319,5.7339,5.7363,5.733,5.7343,5.7365,5.74,5.7408,5.743,5.7468,5.7495,5.7486,5.7511,5.7536,5.7521,5.7544,5.7542,5.7542,5.7418,5.7403,5.7556,5.7555,5.7555,5.7555,5.7555,5.7555,5.7371,5.7428,5.7418,5.7477,5.7478,5.7517,5.7527,5.7539,5.7546,5.759,5.7613,5.7607,5.7609,5.7633,5.7657,5.7654,5.7665,5.7693,5.7684,5.7568,5.7551,5.7535,5.7521,5.7696,5.7696,5.7806,5.7807,5.7808]}]]